Theta_e
336 338 336 331 331 331 331 329 322 317 320 320 316 311 308 306 305 305 306 305 305 310 315 320 324 327 324 324 324 324 324 323 320 319 319 320 323 325 323 324 325 326 327
328 328 327 327 328 326 326 321 318 316 313 311 316 311 309 308 306 305 305 306 303 307 310 315 322 326 328 326 326 325 326 325 322 319 317 319 320 322 322 322 321 321 322
325 324 321 320 319 318 317 317 312 312 312 310 308 306 305 309 308 306 305 305 305 307 306 311 315 319 322 325 328 328 326 327 325 321 318 318 318 319 320 320 319 319 320
317 316 314 314 315 315 314 313 312 311 309 306 308 309 306 306 308 307 306 305 305 304 307 306 309 313 316 319 321 324 326 330 327 322 319 316 317 319 318 318 317 317 317
311 311 312 312 313 311 310 310 309 309 309 308 308 310 307 302 305 307 307 306 304 303 304 305 303 305 308 312 317 319 322 327 328 325 321 318 317 318 317 317 317 316 317
307 309 309 310 311 310 308 310 309 309 307 305 303 302 304 304 302 303 306 304 303 302 302 302 304 304 303 307 310 314 318 322 326 327 323 321 319 317 318 318 318 317 317
301 302 302 302 304 303 304 305 308 307 306 305 307 309 309 306 303 302 305 304 303 301 302 302 303 303 303 303 305 308 311 314 321 324 325 323 321 319 318 317 317 316 317
294 294 296 296 298 298 298 300 301 303 303 303 300 304 303 306 304 306 306 303 302 303 303 301 301 301 302 302 303 305 307 309 311 316 322 323 324 321 319 317 316 317 317
291 292 292 292 292 292 291 292 295 297 298 300 301 299 297 297 297 304 303 302 303 302 303 304 303 303 302 303 303 303 303 305 307 308 310 317 320 323 321 319 316 317 316
289 290 290 290 290 290 289 290 290 290 291 289 296 295 298 296 293 293 299 299 300 298 300 301 301 302 302 302 302 300 300 301 302 305 307 308 311 318 322 322 319 317 316
288 288 288 288 288 288 288 288 288 288 289 288 288 289 290 291 295 288 287 290 292 293 296 297 297 299 300 301 301 301 299 299 300 302 303 305 307 309 315 321 321 319 317
287 287 287 287 287 287 286 287 287 287 287 287 287 287 286 285 285 285 284 285 287 289 291 293 295 296 300 300 298 296 296 297 299 300 302 303 305 307 308 312 319 321 319
286 285 286 285 285 285 285 286 286 286 285 285 285 285 286 285 286 285 284 284 284 287 288 292 293 296 295 299 298 293 295 297 298 299 300 301 303 305 306 308 311 318 319
285 285 285 284 284 284 284 284 284 284 284 284 284 284 284 285 285 285 283 282 281 282 286 287 291 294 296 296 294 293 293 296 296 297 299 300 301 302 304 306 308 312 318
284 284 283 283 283 283 283 283 283 282 283 283 283 283 283 283 284 284 284 284 282 278 280 285 285 291 292 291 290 291 292 292 294 294 295 298 299 301 302 304 307 309 316
283 283 283 282 282 282 282 282 282 282 282 282 282 282 282 282 282 283 283 283 283 281 279 283 285 287 288 288 289 289 290 291 292 292 293 295 296 298 300 301 304 308 314
282 281 281 281 280 280 280 280 280 280 280 280 281 280 280 281 281 281 281 281 281 281 279 282 284 285 285 285 287 288 289 290 291 291 292 293 294 295 297 299 301 303 310
281 280 279 279 279 279 279 278 278 279 278 278 278 278 278 279 278 279 279 279 279 280 279 278 280 281 282 284 285 285 286 287 289 290 291 292 292 293 295 297 298 300 303
279 279 278 278 277 277 277 278 278 278 278 278 278 277 277 277 276 277 277 276 277 277 278 278 278 280 281 283 282 284 284 286 288 289 290 290 291 292 293 294 296 298 298
278 277 277 276 276 276 276 277 277 277 278 278 277 277 276 276 275 275 275 275 276 276 276 276 276 277 278 280 282 281 281 285 285 287 289 289 290 291 291 292 293 294 296
277 276 276 275 275 275 275 276 277 277 277 276 276 276 276 275 275 275 275 275 274 274 274 274 274 275 275 276 276 278 278 281 282 283 285 287 289 290 291 291 291 292 294
274 274 273 273 272 273 273 275 276 276 275 275 274 274 274 275 274 275 275 276 276 274 273 273 273 272 273 275 276 276 275 275 274 281 281 281 284 285 289 290 291 291 291
273 273 272 272 272 272 272 275 275 275 274 274 273 273 273 273 274 273 274 275 275 276 277 275 273 273 273 274 275 274 274 275 275 278 279 277 281 281 284 285 288 290 290
272 272 272 271 271 271 272 273 274 274 274 273 273 273 272 273 273 273 273 274 274 275 275 276 276 276 276 277 277 276 276 277 278 279 279 275 279 280 283 286 287 287 289
271 271 271 270 269 269 271 273 273 273 273 273 273 273 273 273 275 276 276 274 275 276 278 279 279 280 280 280 280 278 276 275 273 275 278 276 277 277 279 280 283 285 288
270 270 270 269 268 267 269 271 273 273 272 273 274 274 276 275 277 278 276 275 274 275 276 277 277 278 279 279 279 278 277 273 273 273 277 275 275 276 273 279 281 284 286
Wind_Speed
4 1 1 2 2 1 2 3 1 1 4 3 2 3 4 4 5 3 3 2 6 8 10 11 11 11 7 5 4 5 4 4 1 2 5 7 9 9 6 6 6 8 8
4 3 3 2 2 3 3 4 3 3 3 4 4 5 5 4 4 5 5 5 4 8 8 9 10 12 12 9 8 6 7 6 7 1 2 7 10 8 6 5 3 6 8
7 7 5 5 4 3 3 2 2 1 1 2 3 2 4 5 4 5 4 4 6 4 8 11 10 9 10 12 13 10 11 9 10 6 5 5 8 8 8 7 8 9 11
10 9 6 5 5 5 4 4 3 2 2 1 2 2 3 4 5 5 4 3 3 4 4 8 12 13 13 12 12 12 15 18 11 7 6 2 6 5 5 6 6 8 8
12 10 8 7 8 6 6 5 4 3 3 3 4 4 4 3 5 4 6 5 4 4 4 5 6 10 10 13 14 14 13 15 9 12 11 9 8 7 7 7 8 8 9
11 9 8 9 8 7 7 6 6 5 5 5 5 5 4 3 2 4 4 4 4 5 4 6 6 5 7 12 13 15 16 15 15 12 13 12 12 8 10 10 9 10 10
13 12 9 10 9 9 10 10 6 6 6 9 4 4 3 1 0 0 3 3 4 4 5 5 4 4 6 10 12 13 15 17 17 16 13 13 15 12 12 12 13 13 11
14 13 12 11 12 9 12 12 12 6 6 9 6 5 4 2 4 5 4 3 5 6 7 7 6 5 5 5 8 14 16 16 18 18 17 15 15 14 12 11 13 13 13
14 14 14 12 12 11 10 12 12 14 8 8 11 6 5 5 11 3 7 6 9 8 8 10 11 10 9 7 8 8 12 14 17 18 20 20 18 15 16 14 13 15 14
13 13 13 12 12 9 11 10 10 10 10 9 5 8 6 5 5 7 4 9 7 12 12 9 11 11 11 9 9 10 12 14 16 18 19 20 20 20 17 19 16 16 16
12 12 11 11 11 9 10 11 10 10 8 7 6 6 6 6 3 7 11 10 8 8 9 10 12 10 11 10 9 9 11 14 16 16 18 20 20 21 21 21 20 18 17
7 10 10 9 9 9 9 8 8 9 8 6 6 5 5 5 7 7 11 13 14 8 9 8 8 10 8 9 9 9 14 17 16 17 18 19 21 22 21 23 24 22 20
6 8 8 8 7 7 7 7 7 6 7 6 7 6 5 5 6 8 10 11 12 11 9 6 6 6 9 8 7 8 15 15 18 19 19 19 20 22 22 22 24 26 22
5 6 6 7 7 7 6 6 4 5 6 5 7 5 6 5 6 7 8 10 13 11 12 14 9 5 4 6 10 17 13 16 19 20 22 22 21 21 23 23 24 25 23
4 5 5 5 5 5 5 5 4 5 5 5 6 6 6 6 6 7 8 8 10 13 13 11 11 8 7 9 13 14 15 19 21 22 22 22 23 23 22 24 25 25 26
5 4 3 4 5 5 6 6 5 5 6 5 5 8 7 6 8 7 8 9 9 12 14 11 12 14 14 11 13 15 15 18 21 20 20 21 22 23 23 23 25 26 25
4 3 3 3 4 4 5 5 5 5 6 7 8 8 10 10 8 9 9 9 10 10 13 13 12 14 18 17 14 13 13 14 12 20 21 22 22 23 23 24 24 26 25
4 3 1 2 3 5 5 5 5 5 7 8 9 10 11 9 12 11 9 13 12 13 12 19 15 12 16 17 17 17 13 12 14 17 25 25 24 23 23 24 24 24 24
4 3 1 2 3 4 5 5 6 7 8 8 9 10 11 11 12 10 12 12 12 11 12 13 16 12 12 12 16 15 14 14 12 19 25 25 23 23 23 24 24 23 23
4 3 1 1 3 4 5 5 7 8 8 8 9 10 11 12 13 13 13 14 13 13 13 13 13 13 12 12 11 13 13 10 11 11 13 17 20 23 25 25 23 21 23
3 2 2 2 3 4 3 7 8 9 10 10 10 10 11 13 18 17 11 13 15 12 11 12 13 13 13 12 12 11 14 13 13 11 12 10 10 10 10 13 14 19 21
3 3 3 4 4 3 6 9 10 9 10 11 11 11 11 13 14 18 20 21 19 14 14 12 13 15 18 14 12 11 12 13 16 11 13 11 11 12 11 10 17 20 22
4 4 5 5 5 5 7 10 12 9 10 10 11 11 11 10 14 14 17 21 20 22 23 17 17 16 17 16 15 15 15 14 14 11 14 16 11 13 11 14 26 25 24
6 6 7 5 4 5 8 11 12 10 9 10 11 12 13 14 14 16 17 16 17 16 17 14 16 17 17 16 16 16 17 16 14 12 13 17 11 13 11 11 24 29 29
6 7 6 4 5 6 9 11 11 9 9 10 11 12 13 16 20 24 18 17 17 16 19 29 30 31 32 31 26 14 12 12 13 12 11 13 11 13 13 13 13 28 28
6 6 5 5 5 7 10 11 10 7 9 9 11 12 16 18 24 26 18 17 18 14 14 16 15 19 23 20 27 18 12 13 13 14 12 11 10 11 12 9 10 10 12
Wind_Direction
346 51 216 164 219 217 247 207 145 6 316 341 347 337 339 334 328 320 312 20 336 342 342 341 335 314 302 295 287 275 248 173 16 354 349 348 341 344 327 348 1 19 7
64 56 35 35 20 8 358 22 13 12 28 6 342 351 341 326 323 320 322 320 320 328 330 334 342 341 330 312 287 270 257 240 193 203 324 334 323 311 336 333 309 356 328
51 65 62 57 35 39 82 87 96 96 34 3 356 328 317 307 299 299 302 313 325 302 327 327 330 329 331 327 325 306 279 257 223 177 164 310 309 293 300 303 300 305 316
55 59 54 37 32 35 41 41 16 34 24 352 306 270 262 279 274 272 274 279 297 306 317 345 335 330 324 319 318 316 311 315 219 198 176 257 307 304 295 287 284 290 295
56 58 52 45 50 47 43 33 42 17 2 343 308 289 269 254 273 291 293 292 299 301 310 315 321 314 320 318 313 307 303 300 256 229 190 194 239 257 266 274 272 272 281
49 60 57 54 50 47 40 36 39 51 23 341 306 296 288 273 285 282 303 299 310 314 308 313 311 307 309 311 310 309 306 302 295 282 228 222 217 213 263 271 270 266 267
44 45 49 43 47 49 37 26 15 20 22 357 305 311 281 315 20 120 14 10 6 19 342 323 311 320 312 309 303 305 304 303 299 300 312 234 233 230 212 251 260 261 257
45 49 48 45 40 45 41 31 26 14 26 19 348 298 333 263 43 313 330 2 358 345 342 340 332 319 304 303 298 299 297 298 301 298 293 293 266 245 234 225 253 256 254
54 52 52 52 50 44 43 37 28 25 21 29 38 3 335 343 333 32 333 359 344 346 336 326 319 316 309 297 290 293 291 295 297 296 295 291 284 276 240 236 239 250 252
59 57 57 56 54 48 44 38 34 35 28 29 20 14 9 332 332 317 328 325 347 329 322 321 319 317 311 305 300 280 282 291 293 293 290 289 287 279 266 243 237 246 255
57 55 55 55 55 48 44 37 35 31 33 28 25 359 355 339 341 311 307 323 316 319 312 326 316 313 313 310 308 309 322 312 305 297 290 286 283 281 275 271 245 236 245
68 55 57 57 51 50 40 38 31 33 24 25 10 5 354 341 331 317 308 310 311 313 324 295 309 314 318 316 319 328 326 319 313 308 302 295 287 281 277 272 268 242 235
70 57 51 49 47 43 40 33 30 27 20 13 6 348 339 327 318 310 305 305 304 310 302 299 290 295 305 309 321 355 323 309 313 311 307 303 294 283 277 273 269 264 233
76 62 56 50 44 34 28 20 22 15 2 1 356 349 330 323 317 311 305 306 304 297 299 302 309 295 309 321 318 326 312 312 308 306 305 300 294 292 282 273 268 263 246
81 66 51 45 37 30 20 5 14 8 354 352 342 339 328 323 318 313 303 299 296 300 299 302 305 310 313 316 311 304 303 298 300 300 297 294 292 288 286 281 272 263 253
128 108 75 41 27 15 4 359 1 1 346 346 335 328 325 322 314 306 303 296 289 287 287 296 294 300 299 299 299 294 290 293 290 291 292 291 289 287 285 282 278 269 254
137 101 55 33 17 360 0 347 348 347 339 333 329 326 319 322 310 309 302 293 288 287 285 289 292 297 298 298 297 296 292 293 290 289 287 287 286 286 282 279 278 275 265
145 125 104 38 1 354 346 334 330 330 328 326 326 321 318 321 313 310 304 301 296 293 288 290 288 293 290 299 298 296 291 285 286 287 289 289 286 282 280 277 273 272 273
154 138 101 13 338 334 329 320 326 323 322 317 315 313 310 312 307 306 304 300 301 300 296 292 295 298 293 292 291 295 296 291 281 280 282 285 285 282 278 274 270 265 263
168 156 139 306 318 319 302 311 314 313 309 309 307 306 307 304 303 307 302 300 297 297 297 293 293 300 300 304 293 291 290 292 295 296 286 281 281 281 276 275 273 266 261
164 170 202 279 296 295 307 320 315 312 308 308 305 303 299 306 300 294 292 296 300 298 297 295 292 294 300 310 303 305 294 298 295 302 293 297 288 288 289 286 271 260 263
189 205 235 248 274 281 309 304 311 308 305 303 304 306 302 299 296 302 296 294 293 292 287 293 294 286 294 302 302 295 289 291 292 304 297 296 301 304 300 280 282 282 281
212 228 236 238 253 278 290 302 307 297 298 299 300 300 301 300 301 298 298 294 290 284 279 283 284 286 289 291 295 293 286 281 284 295 300 290 294 282 278 275 282 282 277
225 234 237 234 262 282 295 302 300 295 293 291 295 297 297 300 300 301 293 285 278 275 272 269 265 268 272 276 273 275 276 275 274 276 275 281 300 289 292 285 277 273 273
226 239 236 237 266 286 295 296 301 296 291 293 294 293 297 297 295 291 291 291 285 274 269 270 271 274 275 276 278 282 279 283 283 279 277 281 289 290 287 282 276 283 279
234 240 247 250 258 273 283 288 295 287 294 298 299 295 289 295 301 301 296 288 284 302 302 287 276 276 277 274 275 274 279 276 277 280 272 274 293 305 293 272 273 284 271